Simultaneous Nadir Overpasses (SNOs) Predictions

Prediction of SNOs between NOAA-15 and METOP-C Satellite Orbit:

Table of predicted SNOs for the next 14.0 days since TLE Epoch: 10/4/2022
Index Date (NOAA-15) Time (NOAA-15) Lat,Lon (NOAA-15) SZA (NOAA-15 ) Date (METOP-C) Time (METOP-C) Lat,Lon (METOP-C) SZA (METOP-C ) Distance(km) Time Diff (sec)
1 10/17/2022 13:58:26 81.09, 8.28 92.64 10/17/2022 13:57:14 81.08, 8.21 92.59 1.99 72
2 10/17/2022 14:48:59 -81.09, 175.68 87.35 10/17/2022 14:47:55 -81.09, 175.86 87.36 3.12 64
3 10/17/2022 15:39:28 81.10, -17.13 92.65 10/17/2022 15:38:35 81.08, -16.95 92.64 3.36 53
4 10/17/2022 16:30:01 -81.09, 150.27 87.34 10/17/2022 16:29:17 -81.08, 150.33 87.36 1.80 44
5 10/17/2022 17:20:29 81.09, -42.16 92.69 10/17/2022 17:19:56 81.09, -42.11 92.69 0.86 33
6 10/17/2022 18:11:02 -81.09, 125.24 87.30 10/17/2022 18:10:38 -81.09, 125.17 87.31 1.19 24
7 10/17/2022 19:01:31 81.09, -67.56 92.71 10/17/2022 19:01:18 81.08, -67.65 92.69 1.87 13
8 10/17/2022 19:52:04 -81.09, 99.83 87.28 10/17/2022 19:51:59 -81.10, 100.01 87.26 3.14 5
9 10/17/2022 20:42:33 81.10, -92.97 92.72 10/17/2022 20:42:39 81.09, -92.81 92.74 2.95 6
10 10/17/2022 21:33:06 -81.10, 74.42 87.27 10/17/2022 21:33:21 -81.09, 74.48 87.26 1.50 15
11 10/17/2022 22:23:34 81.09,-118.00 92.77 10/17/2022 22:24:00 81.10,-117.97 92.78 0.91 26
12 10/17/2022 23:14:07 -81.09, 49.39 87.23 10/17/2022 23:14:42 -81.09, 49.32 87.21 1.34 35
13 10/18/2022 00:04:35 81.10,-143.40 92.78 10/18/2022 00:05:21 81.09,-143.50 92.79 1.88 46
14 10/18/2022 00:55:08 -81.10, 23.98 87.21 10/18/2022 00:56:02 -81.10, 24.16 87.16 3.21 54
15 10/18/2022 01:45:37 81.10,-168.80 92.80 10/18/2022 01:46:42 81.10,-168.66 92.83 2.58 65



Historial Predications of SNOs between NOAA-15 and METOP-C
